When you browse on this site, cookies collect data to enhance your experience and personalize the content and advertising you see.
Visit our Privacy Policy to learn more. By continuing to use the site, you agree to this use of cookies and data.
  • In Portugal
  • List of Countries
  • For 7 days
  • Water Temperature
  • Weather Map
  • Weather Widgets
  • user-avatar
    Login

    Hourly Weather Naftalan

    Today, 21 August, Wednesday

    Time Temperature Precipitation Wind Pressure Humidity
    00:00 +25°C° 0 mm 1 mps 763 mmHg 71%
    01:00 +25°C° 0 mm 1 mps 763 mmHg 70%
    02:00 +25°C° 0 mm 1 mps 763 mmHg 70%
    03:00 +25°C° 0 mm 2 mps 763 mmHg 64%
    04:00 +25°C° 0 mm 1 mps 763 mmHg 63%
    05:00 +26°C° 0 mm 1 mps 763 mmHg 62%
    06:00 +26°C° 0 mm 1 mps 763 mmHg 61%
    07:00 +29°C° 0 mm 1 mps 763 mmHg 51%
    08:00 +31°C° 0 mm 1 mps 763 mmHg 42%
    09:00 +34°C° 0 mm 1 mps 763 mmHg 32%
    10:00 +36°C° 0 mm 2 mps 763 mmHg 30%
    11:00 +37°C° 0 mm 2 mps 762 mmHg 27%
    12:00 +38°C° 0 mm 3 mps 762 mmHg 24%
    13:00 +38°C° 0 mm 4 mps 762 mmHg 25%
    14:00 +37°C° 0 mm 4 mps 761 mmHg 26%
    15:00 +37°C° 0 mm 5 mps 761 mmHg 27%
    16:00 +35°C° 0 mm 4 mps 761 mmHg 33%
    17:00 +34°C° 0 mm 4 mps 761 mmHg 39%
    18:00 +31°C° 0 mm 3 mps 760 mmHg 45%
    19:00 +29°C° 0 mm 3 mps 761 mmHg 50%
    20:00 +28°C° 0 mm 2 mps 761 mmHg 55%
    21:00 +26°C° 0 mm 2 mps 761 mmHg 60%
    22:00 +26°C° 0 mm 2 mps 761 mmHg 64%
    23:00 +25°C° 0 mm 1 mps 761 mmHg 67%

    Tomorrow, 22 August, Thursday

    Time Temperature Precipitation Wind Pressure Humidity
    00:00 +24°C° 0 mm 1 mps 760 mmHg 71%
    01:00 +25°C° 0 mm 1 mps 760 mmHg 70%
    02:00 +25°C° 0 mm 1 mps 760 mmHg 68%
    03:00 +25°C° 0 mm 2 mps 760 mmHg 67%
    04:00 +25°C° 0 mm 2 mps 760 mmHg 66%
    05:00 +26°C° 0 mm 1 mps 760 mmHg 64%
    06:00 +26°C° 0 mm 1 mps 761 mmHg 63%
    07:00 +28°C° 0 mm 1 mps 760 mmHg 54%
    08:00 +31°C° 0 mm 1 mps 760 mmHg 44%
    09:00 +32°C° 0 mm 0 mps 760 mmHg 35%
    10:00 +35°C° 0 mm 2 mps 760 mmHg 32%
    11:00 +36°C° 0 mm 3 mps 760 mmHg 29%
    12:00 +37°C° 0 mm 4 mps 759 mmHg 25%
    13:00 +37°C° 0 mm 4 mps 759 mmHg 27%
    14:00 +37°C° 0 mm 5 mps 759 mmHg 28%
    15:00 +36°C° 0 mm 5 mps 758 mmHg 29%
    16:00 +35°C° 0 mm 5 mps 758 mmHg 35%
    17:00 +33°C° 0 mm 4 mps 759 mmHg 41%
    18:00 +32°C° 0 mm 4 mps 759 mmHg 47%
    19:00 +30°C° 0 mm 4 mps 759 mmHg 53%
    20:00 +28°C° 0 mm 3 mps 759 mmHg 58%
    21:00 +27°C° 0 mm 3 mps 759 mmHg 64%
    22:00 +27°C° 0 mm 3 mps 759 mmHg 67%
    23:00 +26°C° 0 mm 2 mps 759 mmHg 69%

    Day after tomorrow, 23 August, Friday

    Time Temperature Precipitation Wind Pressure Humidity
    00:00 +25°C° 0 mm 2 mps 760 mmHg 72%
    01:00 +25°C° 0 mm 2 mps 760 mmHg 71%
    02:00 +25°C° 0 mm 2 mps 760 mmHg 69%
    03:00 +25°C° 0 mm 2 mps 760 mmHg 67%
    04:00 +26°C° 0 mm 2 mps 760 mmHg 65%
    05:00 +26°C° 0 mm 1 mps 760 mmHg 63%
    06:00 +26°C° 0 mm 1 mps 760 mmHg 61%
    07:00 +29°C° 0 mm 1 mps 760 mmHg 53%
    08:00 +31°C° 0 mm 1 mps 760 mmHg 45%
    09:00 +33°C° 0 mm 1 mps 760 mmHg 37%
    10:00 +36°C° 0 mm 2 mps 760 mmHg 33%
    11:00 +37°C° 0 mm 3 mps 759 mmHg 30%
    12:00 +38°C° 0 mm 4 mps 759 mmHg 26%
    13:00 +38°C° 0 mm 4 mps 759 mmHg 28%
    14:00 +37°C° 0 mm 4 mps 758 mmHg 29%
    15:00 +37°C° 0 mm 5 mps 758 mmHg 30%
    16:00 +35°C° 0 mm 5 mps 758 mmHg 36%
    17:00 +34°C° 0 mm 5 mps 758 mmHg 42%
    18:00 +32°C° 0 mm 5 mps 758 mmHg 47%
    19:00 +30°C° 0 mm 4 mps 758 mmHg 53%
    20:00 +28°C° 0 mm 3 mps 759 mmHg 59%
    21:00 +27°C° 0 mm 3 mps 759 mmHg 65%
    22:00 +27°C° 0 mm 3 mps 759 mmHg 66%
    23:00 +27°C° 0 mm 2 mps 759 mmHg 66%

    24 August, Saturday

    Time Temperature Precipitation Wind Pressure Humidity
    00:00 +27°C° 0 mm 2 mps 759 mmHg 67%
    01:00 +26°C° 0 mm 2 mps 759 mmHg 70%
    02:00 +26°C° 0 mm 2 mps 759 mmHg 73%
    03:00 +25°C° 0 mm 2 mps 759 mmHg 76%
    04:00 +26°C° 0 mm 1 mps 759 mmHg 73%
    05:00 +26°C° 0 mm 1 mps 759 mmHg 70%
    06:00 +26°C° 0 mm 1 mps 759 mmHg 67%
    07:00 +29°C° 0 mm 1 mps 759 mmHg 58%
    08:00 +31°C° 0 mm 1 mps 760 mmHg 50%
    09:00 +34°C° 0 mm 1 mps 760 mmHg 42%
    10:00 +36°C° 0 mm 2 mps 759 mmHg 37%
    11:00 +37°C° 0 mm 3 mps 759 mmHg 33%
    12:00 +38°C° 0 mm 4 mps 759 mmHg 29%
    13:00 +39°C° 0 mm 5 mps 759 mmHg 31%
    14:00 +39°C° 0 mm 6 mps 759 mmHg 33%
    15:00 +38°C° 0 mm 7 mps 758 mmHg 35%
    16:00 +35°C° 0 mm 6 mps 758 mmHg 43%
    17:00 +34°C° 0 mm 5 mps 759 mmHg 50%
    18:00 +32°C° 0 mm 4 mps 759 mmHg 58%
    19:00 +30°C° 0 mm 4 mps 759 mmHg 60%
    20:00 +29°C° 0 mm 3 mps 760 mmHg 62%
    21:00 +28°C° 0 mm 3 mps 760 mmHg 64%
    22:00 +28°C° 0 mm 3 mps 760 mmHg 65%
    23:00 +27°C° 0 mm 2 mps 760 mmHg 67%

    25 August, Sunday

    Time Temperature Precipitation Wind Pressure Humidity
    00:00 +27°C° 0 mm 2 mps 760 mmHg 68%
    01:00 +26°C° 0 mm 2 mps 760 mmHg 66%
    02:00 +26°C° 0 mm 2 mps 760 mmHg 65%
    03:00 +26°C° 0 mm 2 mps 760 mmHg 63%
    04:00 +26°C° 0 mm 2 mps 760 mmHg 63%
    05:00 +26°C° 0 mm 2 mps 761 mmHg 64%
    06:00 +26°C° 0 mm 2 mps 761 mmHg 64%
    07:00 +29°C° 0 mm 2 mps 761 mmHg 55%
    08:00 +31°C° 0 mm 1 mps 761 mmHg 47%
    09:00 +34°C° 0 mm 1 mps 761 mmHg 38%
    10:00 +36°C° 0 mm 2 mps 761 mmHg 34%
    11:00 +37°C° 0 mm 4 mps 760 mmHg 30%
    12:00 +39°C° 0 mm 5 mps 760 mmHg 27%
    13:00 +37°C° 0 mm 5 mps 760 mmHg 27%
    14:00 +37°C° 0 mm 5 mps 759 mmHg 28%
    15:00 +36°C° 0 mm 6 mps 759 mmHg 28%
    16:00 +35°C° 0 mm 5 mps 759 mmHg 33%
    17:00 +33°C° 0 mm 5 mps 759 mmHg 38%
    18:00 +30°C° 0 mm 4 mps 759 mmHg 43%
    19:00 +29°C° 0 mm 3 mps 759 mmHg 49%
    20:00 +28°C° 0 mm 3 mps 760 mmHg 55%
    21:00 +27°C° 0 mm 2 mps 760 mmHg 60%
    22:00 +26°C° 0 mm 2 mps 760 mmHg 60%
    23:00 +26°C° 0 mm 2 mps 760 mmHg 60%

    26 August, Monday

    Time Temperature Precipitation Wind Pressure Humidity
    00:00 +26°C° 0 mm 2 mps 760 mmHg 59%
    01:00 +25°C° 0 mm 2 mps 760 mmHg 61%
    02:00 +25°C° 0 mm 1 mps 759 mmHg 63%
    03:00 +24°C° 0 mm 1 mps 759 mmHg 65%
    04:00 +24°C° 0 mm 2 mps 760 mmHg 62%
    05:00 +25°C° 0 mm 2 mps 760 mmHg 59%
    06:00 +25°C° 0 mm 3 mps 760 mmHg 56%
    07:00 +27°C° 0 mm 3 mps 760 mmHg 48%
    08:00 +30°C° 0 mm 3 mps 760 mmHg 39%
    09:00 +33°C° 0 mm 3 mps 760 mmHg 30%
    10:00 +34°C° 0 mm 3 mps 760 mmHg 28%
    11:00 +35°C° 0 mm 3 mps 760 mmHg 26%
    12:00 +36°C° 0 mm 3 mps 760 mmHg 24%
    13:00 +36°C° 0 mm 4 mps 760 mmHg 25%
    14:00 +36°C° 0 mm 5 mps 759 mmHg 26%
    15:00 +35°C° 0 mm 5 mps 759 mmHg 26%
    16:00 +34°C° 0 mm 5 mps 759 mmHg 34%
    17:00 +33°C° 0 mm 5 mps 760 mmHg 41%
    18:00 +30°C° 0 mm 4 mps 760 mmHg 48%
    19:00 +29°C° 0 mm 4 mps 761 mmHg 54%
    20:00 +28°C° 0 mm 3 mps 761 mmHg 60%
    21:00 +27°C° 0 mm 3 mps 762 mmHg 66%
    22:00 +27°C° 0 mm 3 mps 762 mmHg 65%
    23:00 +26°C° 0 mm 3 mps 762 mmHg 64%
    Show more